FW0825 Weather Reports


Display with metric or nautical units.
time (UTC)temp
F
wind
direction
speed
MPH
gust
MPH
rain 1hr
in
rain 24hr
in
rain mn
in
humidity
%
barometer
mb
20260504033959 60 207 5.0 9.0 0.00 0.00 0.00 71 1006.1
20260504033719 60 220 5.0 8.0 0.00 0.00 0.00 72 1006.1
20260504033000 59 176 5.0 8.0 0.00 0.00 0.00 73 1006.2
20260504032456 60 191 5.0 8.0 0.00 0.00 0.00 74 1006.2
20260504031956 59 206 4.0 8.0 0.00 0.00 0.00 74 1006.2
20260504031455 60 196 4.0 9.0 0.00 0.00 0.00 76 1006.3
20260504030956 60 182 5.0 9.0 0.00 0.00 0.00 74 1006.3
20260504030456 59 188 4.0 9.0 0.00 0.00 0.00 75 1006.3
20260504025956 60 193 5.0 8.0 0.00 0.00 0.00 74 1006.2
20260504025456 60 187 5.0 7.0 0.00 0.00 0.00 74 1006.3
20260504025438 60 180 5.0 8.0 0.00 0.00 0.00 74 1006.3
20260504024456 60 186 4.0 8.0 0.00 0.00 0.00 74 1006.3
20260504023948 59 176 4.0 7.0 0.00 0.00 0.00 72 1006.3
20260504023443 59 192 4.0 7.0 0.00 0.00 0.00 72 1006.3
20260504022937 58 196 2.0 7.0 0.00 0.00 0.00 74 1006.2
20260504022909 58 179 1.0 4.0 0.00 0.00 0.00 78 1006.3
20260504022152 59 226 1.0 3.0 0.00 0.00 0.00 78 1006.2
20260504021419 59 215 1.0 3.0 0.00 0.00 0.00 78 1006.2
20260504020912 60 215 2.0 3.0 0.00 0.00 0.00 76 1006.1
20260504020406 60 213 1.0 3.0 0.00 0.00 0.00 75 1006.1
20260504020120 60 219 1.0 3.0 0.00 0.00 0.00 74 1006.1
20260504015619 60 166 2.0 4.0 0.00 0.00 0.00 73 1006.0
20260504014850 60 166 2.0 4.0 0.00 0.00 0.00 72 1006.0
20260504014344 60 191 2.0 3.0 0.00 0.00 0.00 73 1006.1
20260504013837 60 191 2.0 4.0 0.00 0.00 0.00 71 1006.0
20260504013333 61 186 2.0 3.0 0.00 0.00 0.00 71 1006.0
20260504012834 62 221 1.0 2.0 0.00 0.00 0.00 71 1006.0
20260504012333 62 221 1.0 3.0 0.00 0.00 0.00 70 1005.9
20260504011834 63 221 1.0 3.0 0.00 0.00 0.00 67 1006.0
20260504011330 63 221 0.0 3.0 0.00 0.00 0.00 63 1005.9
20260504010830 64 221 0.0 1.0 0.00 0.00 0.00 59 1005.8
20260504010330 64 221 0.0 1.0 0.00 0.00 0.00 58 1005.7
20260504005827 65 221 1.0 2.0 0.00 0.00 0.00 56 1005.6
20260504005327 65 221 2.0 3.0 0.00 0.00 0.00 56 1005.7
20260504004828 66 221 2.0 3.0 0.00 0.00 0.00 54 1005.7
20260504004326 67 221 2.0 3.0 0.00 0.00 0.00 53 1005.6
20260504003824 67 221 2.0 4.0 0.00 0.00 0.00 51 1005.6
20260504003324 68 215 3.0 7.0 0.00 0.00 0.00 50 1005.6
20260504002823 68 193 3.0 7.0 0.00 0.00 0.00 50 1005.7
20260504002321 68 221 3.0 7.0 0.00 0.00 0.00 47 1005.6
20260504002045 69 262 4.0 13.0 0.00 0.00 0.00 47 1005.7
20260504001321 69 273 5.0 13.0 0.00 0.00 0.00 50 1005.8
20260504000822 69 248 4.0 9.0 0.00 0.00 0.00 48 1005.8
20260504000321 69 231 5.0 9.0 0.00 0.00 0.00 49 1005.7
20260503235815 69 223 5.0 9.0 0.00 0.00 0.00 49 1005.6
20260503235308 69 214 5.0 11.0 0.00 0.00 0.00 50 1005.7
20260503234803 69 244 6.0 11.0 0.00 0.00 0.00 49 1005.6
20260503234257 69 335 7.0 13.0 0.00 0.00 0.00 49 1005.6
20260503233751 69 264 7.0 13.0 0.00 0.00 0.00 49 1005.7
20260503233245 68 237 7.0 11.0 0.00 0.00 0.00 49 1005.6
20260503232739 68 217 7.0 11.0 0.00 0.00 0.00 50 1005.7
20260503232237 68 215 8.0 13.0 0.00 0.00 0.00 49 1005.7
20260503231737 68 209 7.0 13.0 0.00 0.00 0.00 48 1005.8
20260503231237 68 263 8.0 15.0 0.00 0.00 0.00 50 1005.9
20260503230738 68 256 9.0 15.0 0.00 0.00 0.00 48 1005.8
20260503230237 68 276 10.0 18.0 0.00 0.00 0.00 47 1005.9
20260503225737 68 175 9.0 18.0 0.00 0.00 0.00 48 1006.0
20260503225237 68 273 8.0 16.0 0.00 0.00 0.00 48 1006.0
20260503224737 68 221 9.0 17.0 0.00 0.00 0.00 49 1006.0
20260503224237 68 219 9.0 17.0 0.00 0.00 0.00 50 1006.3
20260503223737 68 282 9.0 18.0 0.00 0.00 0.00 48 1006.2
20260503223237 68 234 10.0 19.0 0.00 0.00 0.00 48 1006.3
20260503222737 68 213 9.0 19.0 0.00 0.00 0.00 49 1006.1
20260503222237 67 270 9.0 20.0 0.00 0.00 0.00 48 1006.1
20260503221738 67 228 11.0 20.0 0.00 0.00 0.00 49 1006.1
20260503221237 68 250 11.0 19.0 0.00 0.00 0.00 47 1006.2
20260503220737 68 260 10.0 22.0 0.00 0.00 0.00 47 1006.1
20260503220238 67 256 12.0 22.0 0.00 0.00 0.00 48 1006.0
20260503215734 67 227 12.0 19.0 0.00 0.00 0.00 49 1006.0
20260503215235 67 246 12.0 23.0 0.00 0.00 0.00 51 1006.1
20260503214736 67 225 12.0 23.0 0.00 0.00 0.00 49 1006.0
20260503214234 67 236 12.0 21.0 0.00 0.00 0.00 51 1006.1
20260503213735 66 214 12.0 19.0 0.00 0.00 0.00 51 1006.2
20260503213237 66 188 13.0 21.0 0.00 0.00 0.00 55 1006.2
20260503212736 66 182 12.0 21.0 0.00 0.00 0.00 54 1006.3
20260503212235 66 228 11.0 24.0 0.00 0.00 0.00 52 1006.3
20260503211958 65 294 12.0 24.0 0.00 0.00 0.00 53 1006.4
20260503211235 65 248 15.0 24.0 0.00 0.00 0.00 54 1006.4
20260503210735 65 202 16.0 24.0 0.00 0.00 0.00 55 1006.6
20260503210235 64 198 16.0 25.0 0.00 0.00 0.00 57 1006.6
20260503205735 64 202 16.0 29.0 0.00 0.00 0.00 55 1006.7
20260503205235 64 187 16.0 29.0 0.00 0.00 0.00 56 1007.0
20260503204735 64 207 16.0 27.0 0.00 0.00 0.00 55 1006.8
20260503204234 64 233 17.0 29.0 0.00 0.00 0.00 53 1007.2
20260503203735 64 229 18.0 29.0 0.00 0.00 0.00 51 1007.4
20260503203235 64 219 17.0 27.0 0.00 0.00 0.00 55 1007.4
20260503202735 64 205 16.0 25.0 0.00 0.00 0.00 52 1007.7
20260503202235 64 227 15.0 24.0 0.00 0.00 0.00 53 1007.7
20260503202002 63 229 15.0 24.0 0.00 0.00 0.00 57 1007.7
20260503201235 63 207 16.0 31.0 0.00 0.00 0.00 57 1007.7
20260503200734 62 183 15.0 31.0 0.00 0.00 0.00 60 1007.8
20260503200456 62 197 14.0 27.0 0.00 0.00 0.00 60 1007.8
20260503195734 62 202 13.0 27.0 0.00 0.00 0.00 62 1008.0
20260503195234 61 191 14.0 24.0 0.00 0.00 0.00 65 1008.2
20260503195000 61 175 15.0 26.0 0.00 0.00 0.00 64 1008.3
20260503194454 61 203 14.0 26.0 0.00 0.00 0.00 65 1008.5
20260503193735 60 184 15.0 25.0 0.00 0.00 0.00 67 1008.8
20260503193236 60 173 16.0 25.0 0.00 0.00 0.00 64 1008.9
20260503192959 60 207 16.0 29.0 0.00 0.00 0.00 67 1009.1
20260503192235 59 188 17.0 29.0 0.00 0.00 0.00 67 1009.1
20260503191734 60 244 16.0 29.0 0.00 0.00 0.00 66 1009.2
20260503191228 60 194 16.0 27.0 0.00 0.00 0.00 65 1009.1
20260503190728 60 188 16.0 24.0 0.00 0.00 0.00 65 1009.2
20260503190228 60 208 14.0 24.0 0.00 0.00 0.00 62 1009.2
20260503185728 60 192 13.0 24.0 0.00 0.00 0.00 63 1008.9
20260503185227 60 179 13.0 21.0 0.00 0.00 0.00 64 1008.9
20260503184953 59 185 14.0 27.0 0.00 0.00 0.00 64 1008.9
20260503184717 59 207 13.0 27.0 0.00 0.00 0.00 63 1008.9
20260503183724 59 175 13.0 23.0 0.00 0.00 0.00 63 1009.0
20260503183225 59 185 14.0 23.0 0.00 0.00 0.00 65 1009.0
20260503182725 59 174 15.0 28.0 0.00 0.00 0.00 62 1009.1
20260503182224 58 155 16.0 28.0 0.00 0.00 0.00 64 1009.2
20260503181942 58 223 16.0 28.0 0.00 0.00 0.00 60 1009.2
20260503181452 59 182 15.0 29.0 0.00 0.00 0.00 63 1009.2
20260503180722 58 173 14.0 29.0 0.00 0.00 0.00 60 1009.4
20260503180223 58 184 15.0 26.0 0.00 0.00 0.00 62 1009.5
20260503175948 58 188 13.0 24.0 0.00 0.00 0.00 64 1009.4
20260503175225 58 173 14.0 24.0 0.00 0.00 0.00 62 1009.4
20260503174718 58 182 14.0 23.0 0.00 0.00 0.00 66 1009.7
20260503174212 57 186 13.0 23.0 0.00 0.00 0.00 64 1009.7
20260503173706 57 190 13.0 23.0 0.00 0.00 0.00 66 1009.8
20260503173643 57 175 12.0 22.0 0.00 0.00 0.00 68 1010.0
20260503172920 57 202 12.0 23.0 0.00 0.00 0.00 67 1010.2
20260503172148 56 136 13.0 23.0 0.00 0.00 0.00 68 1010.3
20260503171642 56 160 12.0 25.0 0.00 0.00 0.00 68 1010.5
20260503171137 56 188 14.0 25.0 0.00 0.00 0.00 69 1010.7
20260503170630 55 192 14.0 25.0 0.00 0.00 0.00 71 1010.8
20260503170124 55 165 14.0 24.0 0.00 0.00 0.00 71 1011.0
20260503150916 54 222 15.0 26.0 0.00 0.00 0.00 67 1013.5
20260503150415 54 233 15.0 26.0 0.00 0.00 0.00 66 1013.5
20260503130912 51 253 14.0 23.0 0.00 0.00 0.00 64 1014.2
20260503130412 51 196 14.0 21.0 0.00 0.00 0.00 64 1014.0
20260503110359 50 205 10.0 16.0 0.00 0.00 0.00 65 1013.5
20260503100251 49 208 10.0 15.0 0.00 0.00 0.00 62 1013.7
20260503090207 49 217 8.0 13.0 0.00 0.00 0.00 62 1014.1
20260503081209 49 201 9.0 14.0 0.00 0.00 0.00 64 1014.5
20260503080930 50 218 9.0 13.0 0.00 0.00 0.00 65 1014.5
20260503080210 49 205 9.0 13.0 0.00 0.00 0.00 65 1014.5
20260503072631 49 201 8.0 11.0 0.00 0.00 0.00 65 1014.5
20260503072612 49 213 8.0 11.0 0.00 0.00 0.00 63 1014.6
20260503071631 49 212 8.0 11.0 0.00 0.00 0.00 66 1014.6
20260503071131 49 200 8.0 12.0 0.00 0.00 0.00 65 1014.6
20260503070631 49 200 8.0 12.0 0.00 0.00 0.00 64 1014.7
20260503070132 49 234 7.0 11.0 0.00 0.00 0.00 65 1014.7
20260503055129 49 196 7.0 12.0 0.00 0.00 0.00 67 1015.3
20260503054628 49 184 7.0 10.0 0.00 0.00 0.00 67 1015.4
20260503054129 49 179 6.0 10.0 0.00 0.00 0.00 67 1015.3
20260503053851 49 223 6.0 9.0 0.00 0.00 0.00 67 1015.3
20260503053128 49 197 6.0 10.0 0.00 0.00 0.00 68 1015.4
20260503052629 49 242 7.0 12.0 0.00 0.00 0.00 68 1015.4
20260503052129 49 217 7.0 12.0 0.00 0.00 0.00 67 1015.4
20260503051628 49 184 7.0 10.0 0.00 0.00 0.00 68 1015.6
20260503051129 49 211 7.0 12.0 0.00 0.00 0.00 67 1015.7
20260503050627 49 196 7.0 12.0 0.00 0.00 0.00 67 1015.6
20260503050126 49 215 7.0 12.0 0.00 0.00 0.00 66 1015.6
20260503045625 49 178 7.0 11.0 0.00 0.00 0.00 67 1015.7
20260503045126 49 209 7.0 11.0 0.00 0.00 0.00 64 1015.8
20260503044626 49 193 7.0 11.0 0.00 0.00 0.00 67 1015.7
20260503044123 50 206 6.0 10.0 0.00 0.00 0.00 67 1015.7
20260503043623 50 184 6.0 10.0 0.00 0.00 0.00 66 1015.8
20260503043122 50 205 7.0 10.0 0.00 0.00 0.00 66 1015.8
20260503042622 50 193 7.0 10.0 0.00 0.00 0.00 66 1015.8
20260503042121 50 186 7.0 9.0 0.00 0.00 0.00 64 1016.0
20260503041843 50 219 6.0 9.0 0.00 0.00 0.00 65 1016.0
20260503041122 50 188 7.0 10.0 0.00 0.00 0.00 64 1016.0
20260503040622 50 195 6.0 10.0 0.00 0.00 0.00 64 1016.0
20260503040122 50 196 6.0 9.0 0.00 0.00 0.00 66 1016.1
20260503035619 50 207 6.0 9.0 0.00 0.00 0.00 66 1016.0
20260503035119 50 198 6.0 9.0 0.00 0.00 0.00 66 1016.2
20260503034620 50 196 6.0 9.0 0.00 0.00 0.00 66 1016.1